GFSNW_500_temp_132.txt.gz
Temp
-20 -20 -20 -19 -19 -19 -19 -19 -18 -18 -18 -18 -18 -20 -21 -21 -22 -21 -21 -21 -21 -20 -20 -20 -21 -20 -21 -20 -20 -21 -23 -24 -25 -26 -27 -27 -26 -27 -27 -26 -25 -24 -24 -24
-21 -20 -20 -20 -20 -19 -19 -19 -19 -19 -19 -19 -20 -21 -22 -22 -22 -22 -22 -21 -21 -21 -21 -21 -21 -21 -21 -21 -22 -23 -25 -26 -26 -26 -27 -27 -27 -26 -26 -26 -26 -25 -24 -24
-20 -21 -20 -20 -20 -19 -19 -19 -19 -19 -19 -22 -22 -23 -23 -22 -23 -22 -21 -21 -21 -21 -22 -21 -22 -21 -22 -23 -25 -27 -27 -27 -27 -27 -27 -27 -27 -26 -26 -26 -26 -25 -25 -25
-20 -20 -20 -20 -20 -19 -20 -19 -19 -21 -22 -22 -23 -23 -23 -23 -22 -22 -21 -22 -21 -22 -22 -22 -21 -22 -24 -25 -27 -27 -27 -27 -27 -27 -27 -27 -26 -27 -26 -26 -26 -26 -25 -25
-21 -20 -20 -20 -20 -20 -20 -20 -20 -22 -24 -23 -23 -24 -23 -23 -22 -22 -22 -22 -22 -22 -22 -22 -23 -24 -26 -27 -27 -27 -27 -26 -26 -27 -27 -27 -27 -26 -26 -26 -26 -26 -25 -25
-20 -20 -20 -20 -21 -21 -21 -22 -23 -24 -25 -24 -24 -23 -23 -23 -22 -22 -22 -22 -22 -22 -22 -23 -24 -27 -27 -27 -27 -26 -27 -27 -26 -27 -27 -27 -26 -27 -27 -26 -26 -26 -25 -25
-21 -21 -20 -21 -21 -21 -22 -24 -24 -25 -25 -24 -24 -23 -23 -23 -23 -23 -22 -22 -23 -23 -23 -24 -27 -27 -27 -27 -27 -26 -27 -27 -26 -26 -27 -26 -26 -26 -26 -26 -26 -26 -26 -25
-21 -21 -21 -21 -21 -23 -23 -25 -25 -25 -25 -24 -24 -23 -23 -23 -23 -23 -23 -23 -23 -24 -24 -26 -27 -27 -27 -27 -27 -26 -26 -26 -26 -26 -26 -26 -26 -26 -26 -26 -26 -26 -26 -25
-21 -22 -22 -22 -23 -25 -25 -25 -25 -25 -24 -24 -24 -24 -24 -23 -23 -23 -23 -23 -24 -24 -25 -27 -27 -27 -27 -27 -27 -26 -26 -26 -26 -26 -26 -26 -26 -26 -26 -26 -26 -26 -26 -25
-21 -22 -23 -23 -26 -25 -25 -25 -24 -24 -24 -24 -24 -24 -24 -24 -23 -23 -23 -24 -24 -25 -26 -27 -27 -27 -27 -27 -27 -27 -27 -26 -26 -26 -26 -26 -26 -26 -26 -26 -26 -25 -25 -25
-22 -23 -24 -25 -25 -25 -25 -24 -24 -24 -24 -24 -24 -24 -24 -24 -24 -24 -24 -24 -25 -25 -26 -27 -27 -27 -27 -27 -27 -26 -26 -27 -27 -26 -26 -26 -26 -26 -26 -26 -25 -25 -25 -25
-24 -24 -25 -26 -26 -25 -25 -24 -24 -24 -24 -24 -24 -24 -24 -24 -24 -24 -25 -24 -25 -26 -26 -27 -27 -27 -27 -27 -26 -26 -26 -26 -26 -26 -26 -26 -26 -26 -26 -25 -25 -25 -25 -25
-24 -24 -26 -26 -25 -25 -25 -25 -25 -25 -25 -25 -24 -25 -25 -24 -24 -25 -25 -25 -26 -26 -27 -27 -27 -27 -27 -27 -26 -26 -26 -26 -26 -26 -26 -26 -26 -26 -26 -26 -25 -25 -25 -24
-25 -25 -26 -26 -25 -25 -25 -25 -25 -25 -25 -25 -25 -25 -25 -25 -25 -25 -25 -25 -26 -26 -27 -27 -27 -27 -27 -27 -26 -26 -26 -26 -26 -26 -26 -26 -26 -26 -26 -25 -25 -25 -25 -24
-25 -26 -26 -26 -26 -25 -25 -25 -25 -25 -25 -25 -25 -25 -25 -25 -25 -25 -25 -25 -26 -27 -27 -27 -27 -27 -27 -26 -26 -26 -26 -26 -26 -26 -26 -26 -26 -26 -25 -25 -25 -25 -25 -25
-26 -27 -26 -26 -26 -26 -26 -26 -25 -25 -25 -25 -25 -26 -25 -25 -25 -25 -25 -26 -26 -27 -27 -28 -28 -27 -27 -26 -26 -26 -26 -26 -26 -26 -26 -26 -25 -25 -25 -25 -25 -25 -25 -25
-26 -27 -27 -27 -26 -26 -26 -26 -26 -26 -26 -26 -26 -26 -26 -26 -26 -26 -26 -26 -26 -27 -28 -28 -28 -28 -27 -27 -27 -26 -26 -26 -26 -26 -26 -26 -25 -25 -25 -25 -25 -24 -25 -25
-26 -27 -27 -27 -27 -26 -26 -26 -26 -26 -26 -26 -26 -26 -26 -26 -26 -26 -26 -26 -27 -27 -28 -29 -28 -28 -28 -27 -26 -26 -26 -26 -26 -26 -26 -25 -25 -25 -25 -25 -25 -25 -25 -25
-27 -27 -27 -27 -27 -27 -26 -27 -27 -27 -26 -26 -26 -26 -26 -26 -26 -26 -26 -27 -27 -28 -28 -28 -28 -28 -28 -27 -27 -26 -26 -26 -26 -26 -26 -25 -25 -25 -25 -25 -25 -25 -25 -25
-27 -28 -28 -28 -28 -27 -27 -27 -27 -27 -27 -27 -26 -26 -27 -27 -27 -27 -27 -27 -28 -28 -28 -28 -28 -28 -28 -27 -27 -26 -26 -26 -26 -26 -26 -26 -26 -26 -26 -26 -26 -26 -25 -25
-28 -28 -27 -28 -28 -28 -27 -27 -27 -27 -27 -27 -27 -27 -27 -27 -27 -27 -27 -27 -28 -28 -28 -28 -28 -28 -28 -28 -27 -27 -27 -26 -26 -26 -26 -26 -26 -26 -26 -26 -26 -25 -25 -25
-28 -28 -28 -28 -28 -28 -28 -28 -27 -27 -27 -27 -27 -27 -27 -27 -27 -27 -28 -28 -28 -28 -28 -28 -28 -28 -28 -28 -28 -27 -27 -27 -27 -26 -26 -27 -27 -26 -26 -26 -25 -25 -25 -25
-28 -28 -28 -28 -28 -28 -28 -28 -28 -28 -28 -28 -28 -27 -28 -28 -28 -28 -28 -28 -28 -28 -28 -28 -28 -28 -28 -28 -28 -28 -28 -27 -27 -26 -26 -26 -26 -26 -26 -26 -26 -25 -25 -25
-28 -28 -28 -28 -28 -28 -28 -28 -28 -28 -28 -28 -28 -28 -28 -28 -28 -28 -29 -28 -28 -28 -28 -28 -28 -28 -28 -28 -28 -28 -28 -27 -27 -27 -26 -26 -26 -26 -26 -26 -25 -25 -25 -25
-29 -29 -29 -28 -28 -28 -28 -28 -28 -28 -28 -28 -28 -28 -28 -28 -28 -29 -29 -29 -29 -29 -29 -29 -28 -28 -28 -28 -28 -28 -28 -27 -27 -27 -26 -26 -26 -26 -26 -26 -25 -25 -26 -26
-29 -29 -29 -29 -29 -28 -28 -28 -28 -28 -28 -28 -28 -29 -29 -29 -29 -29 -29 -29 -30 -29 -29 -29 -29 -29 -29 -28 -28 -28 -28 -28 -27 -27 -27 -26 -26 -26 -25 -26 -26 -26 -26 -26
-29 -29 -29 -29 -29 -29 -29 -29 -29 -28 -29 -29 -29 -29 -29 -29 -29 -29 -29 -30 -30 -29 -29 -29 -29 -29 -29 -28 -28 -28 -28 -28 -27 -27 -26 -26 -26 -26 -26 -26 -26 -26 -26 -26

GFSNW_500_temp_135.txt.gz
Temp
-20 -21 -21 -21 -21 -20 -20 -19 -19 -19 -19 -19 -18 -18 -18 -18 -18 -20 -20 -20 -20 -21 -21 -21 -20 -20 -20 -20 -20 -20 -20 -19 -19 -21 -25 -26 -26 -26 -26 -26 -26 -26 -25 -25
-21 -21 -21 -21 -21 -20 -20 -20 -20 -19 -19 -19 -18 -18 -18 -19 -21 -22 -21 -21 -21 -21 -21 -21 -21 -21 -20 -20 -20 -20 -20 -22 -23 -26 -26 -27 -27 -27 -27 -26 -26 -26 -26 -26
-21 -21 -22 -21 -21 -21 -20 -20 -19 -19 -19 -19 -19 -19 -19 -22 -21 -22 -22 -22 -22 -22 -21 -21 -21 -21 -21 -20 -21 -21 -23 -26 -27 -27 -27 -27 -27 -27 -27 -26 -26 -26 -26 -26
-22 -22 -22 -22 -21 -21 -20 -21 -20 -20 -19 -19 -19 -20 -21 -22 -23 -23 -23 -22 -22 -22 -21 -21 -21 -21 -21 -21 -23 -24 -26 -27 -27 -27 -27 -27 -27 -27 -27 -26 -26 -26 -26 -25
-22 -22 -21 -21 -21 -21 -21 -21 -20 -20 -20 -20 -21 -21 -23 -23 -23 -23 -23 -22 -22 -21 -22 -21 -21 -21 -21 -23 -25 -26 -26 -26 -26 -27 -27 -27 -27 -26 -26 -26 -26 -25 -25 -25
-22 -21 -21 -21 -21 -21 -21 -20 -20 -20 -21 -21 -22 -22 -23 -24 -24 -23 -23 -22 -22 -22 -22 -22 -22 -22 -24 -26 -27 -26 -26 -26 -27 -27 -27 -27 -27 -27 -26 -27 -26 -26 -26 -26
-21 -21 -21 -21 -21 -21 -21 -21 -21 -21 -23 -23 -23 -24 -24 -24 -23 -23 -22 -22 -22 -22 -22 -22 -22 -24 -26 -27 -26 -27 -26 -26 -26 -27 -26 -26 -26 -26 -27 -26 -26 -26 -26 -26
-21 -21 -21 -21 -21 -21 -21 -22 -23 -24 -26 -25 -25 -25 -24 -23 -23 -23 -23 -22 -22 -22 -22 -23 -24 -26 -27 -27 -27 -27 -27 -26 -26 -26 -26 -26 -26 -26 -26 -26 -26 -26 -26 -26
-21 -21 -21 -21 -21 -21 -22 -23 -25 -25 -25 -26 -25 -24 -24 -23 -23 -23 -23 -23 -23 -23 -23 -24 -25 -27 -27 -27 -27 -26 -26 -26 -26 -26 -26 -26 -26 -26 -26 -26 -26 -26 -26 -26
-21 -21 -21 -21 -22 -22 -23 -24 -25 -25 -26 -25 -25 -24 -24 -24 -23 -23 -23 -23 -23 -23 -24 -24 -25 -27 -27 -27 -26 -26 -26 -26 -26 -26 -26 -26 -26 -26 -26 -26 -26 -26 -26 -25
-21 -21 -22 -22 -23 -24 -25 -24 -25 -25 -25 -25 -25 -24 -24 -24 -24 -24 -23 -23 -23 -24 -24 -25 -26 -27 -27 -27 -27 -27 -26 -26 -26 -26 -26 -26 -26 -26 -26 -26 -26 -26 -25 -25
-21 -22 -23 -24 -24 -24 -25 -26 -26 -25 -25 -24 -24 -24 -24 -24 -24 -24 -24 -24 -24 -24 -25 -25 -26 -27 -27 -27 -26 -26 -26 -26 -26 -26 -26 -26 -26 -26 -26 -26 -26 -25 -25 -25
-23 -24 -24 -24 -25 -26 -25 -26 -25 -25 -24 -25 -25 -25 -24 -24 -24 -24 -24 -24 -24 -25 -25 -26 -27 -27 -27 -27 -27 -26 -26 -26 -26 -26 -26 -26 -26 -26 -26 -25 -25 -25 -25 -25
-24 -24 -25 -25 -25 -25 -26 -25 -25 -25 -25 -25 -25 -25 -25 -24 -24 -24 -24 -25 -25 -25 -26 -26 -27 -27 -27 -27 -27 -26 -26 -26 -26 -26 -26 -26 -26 -25 -25 -25 -25 -25 -25 -25
-24 -25 -25 -26 -26 -26 -25 -25 -25 -25 -25 -25 -25 -25 -25 -25 -25 -25 -25 -25 -25 -25 -26 -26 -27 -27 -27 -27 -27 -26 -26 -26 -26 -26 -26 -26 -26 -25 -25 -25 -25 -25 -25 -25
-25 -25 -26 -27 -26 -26 -25 -25 -25 -25 -25 -25 -25 -25 -25 -25 -25 -25 -25 -25 -26 -25 -26 -26 -27 -27 -27 -27 -27 -26 -26 -26 -26 -26 -26 -26 -26 -25 -25 -25 -25 -25 -25 -25
-25 -25 -27 -26 -26 -26 -26 -25 -25 -25 -25 -25 -25 -25 -25 -25 -25 -25 -25 -26 -25 -25 -26 -26 -27 -28 -28 -27 -27 -26 -26 -26 -26 -26 -26 -26 -26 -26 -25 -26 -25 -25 -25 -25
-25 -26 -27 -26 -26 -26 -26 -26 -26 -26 -26 -26 -26 -26 -26 -26 -26 -26 -26 -26 -26 -26 -26 -27 -28 -28 -28 -28 -27 -27 -26 -26 -26 -26 -26 -26 -26 -26 -25 -25 -25 -25 -25 -25
-26 -26 -27 -26 -27 -27 -26 -26 -26 -26 -26 -26 -26 -26 -26 -26 -26 -26 -26 -26 -26 -27 -27 -27 -28 -28 -28 -27 -27 -27 -27 -27 -26 -26 -26 -26 -26 -26 -26 -26 -26 -25 -25 -25
-27 -27 -27 -27 -27 -27 -27 -27 -27 -27 -27 -27 -26 -26 -26 -26 -26 -26 -26 -27 -27 -27 -27 -28 -28 -28 -28 -28 -28 -28 -27 -27 -26 -26 -26 -26 -26 -26 -26 -26 -26 -26 -26 -26
-27 -27 -27 -27 -28 -27 -27 -27 -27 -27 -27 -27 -27 -26 -26 -26 -27 -26 -27 -27 -27 -27 -28 -28 -28 -28 -28 -28 -28 -28 -28 -27 -27 -27 -26 -26 -26 -26 -26 -26 -26 -26 -26 -26
-28 -27 -27 -28 -28 -28 -28 -27 -28 -28 -27 -27 -27 -27 -27 -27 -27 -27 -27 -27 -27 -28 -28 -28 -28 -28 -28 -28 -28 -28 -28 -28 -27 -27 -27 -26 -26 -26 -26 -26 -26 -26 -26 -26
-28 -28 -28 -28 -28 -28 -28 -28 -28 -28 -28 -27 -27 -27 -27 -27 -27 -27 -27 -27 -28 -28 -28 -28 -28 -28 -28 -28 -28 -28 -28 -28 -28 -28 -27 -27 -26 -26 -26 -26 -26 -26 -26 -26
-29 -29 -28 -28 -28 -28 -27 -28 -28 -28 -28 -27 -27 -27 -27 -27 -27 -27 -28 -28 -28 -28 -28 -28 -28 -28 -28 -28 -28 -28 -28 -28 -28 -28 -28 -27 -27 -26 -26 -26 -26 -26 -26 -25
-29 -29 -29 -28 -28 -28 -28 -28 -28 -28 -28 -28 -28 -28 -27 -27 -28 -28 -28 -28 -29 -29 -29 -29 -29 -29 -29 -29 -28 -28 -28 -28 -28 -28 -28 -27 -27 -27 -27 -27 -26 -26 -26 -25
-29 -29 -29 -28 -28 -28 -28 -28 -28 -28 -28 -28 -28 -28 -28 -28 -28 -28 -29 -29 -29 -29 -30 -29 -29 -29 -29 -29 -29 -29 -29 -28 -28 -28 -28 -28 -27 -27 -27 -27 -26 -26 -26 -26
-30 -29 -29 -29 -29 -28 -29 -28 -28 -28 -28 -28 -28 -28 -28 -28 -28 -29 -29 -29 -29 -29 -30 -30 -30 -30 -29 -29 -29 -29 -29 -29 -28 -28 -28 -28 -27 -27 -27 -26 -26 -26 -26 -26

GFSNW_500_temp_138.txt.gz
Temp
-21 -21 -19 -20 -20 -20 -21 -21 -21 -20 -19 -19 -18 -18 -18 -18 -19 -19 -18 -18 -18 -18 -19 -20 -20 -21 -21 -20 -20 -20 -19 -19 -20 -20 -21 -20 -21 -23 -25 -26 -26 -27 -26 -26
-21 -21 -21 -21 -21 -21 -21 -21 -21 -21 -20 -20 -19 -18 -18 -18 -19 -19 -18 -18 -18 -20 -20 -20 -21 -21 -21 -21 -20 -20 -20 -20 -21 -21 -22 -24 -25 -25 -26 -27 -26 -26 -26 -26
-21 -21 -20 -21 -21 -21 -21 -22 -21 -20 -21 -20 -20 -19 -19 -20 -19 -19 -18 -19 -20 -21 -22 -22 -21 -21 -21 -21 -21 -21 -20 -21 -21 -23 -24 -26 -26 -27 -27 -27 -27 -26 -26 -26
-21 -21 -21 -21 -21 -21 -22 -22 -21 -21 -20 -20 -21 -20 -19 -20 -19 -19 -20 -21 -22 -22 -22 -22 -22 -22 -21 -21 -21 -21 -21 -22 -23 -25 -26 -26 -26 -27 -27 -27 -27 -26 -26 -26
-21 -21 -21 -21 -22 -22 -22 -22 -21 -21 -21 -21 -20 -20 -20 -20 -20 -20 -22 -23 -23 -22 -22 -22 -22 -22 -21 -21 -21 -22 -23 -25 -26 -26 -26 -26 -26 -27 -27 -27 -27 -27 -26 -26
-21 -21 -22 -22 -22 -22 -22 -22 -22 -22 -21 -21 -20 -20 -20 -21 -22 -22 -23 -23 -23 -23 -22 -22 -22 -22 -22 -22 -22 -24 -25 -26 -26 -26 -26 -26 -26 -26 -27 -27 -27 -27 -26 -27
-21 -22 -22 -22 -22 -22 -22 -22 -22 -21 -21 -21 -20 -21 -21 -23 -24 -24 -23 -24 -23 -22 -22 -22 -22 -22 -22 -22 -24 -26 -26 -26 -26 -26 -26 -26 -26 -26 -26 -26 -26 -26 -26 -26
-22 -22 -21 -22 -23 -22 -22 -22 -22 -21 -21 -21 -21 -22 -23 -23 -24 -24 -24 -23 -23 -22 -22 -22 -22 -22 -23 -24 -26 -26 -27 -26 -26 -26 -26 -26 -26 -26 -26 -26 -26 -26 -26 -26
-22 -22 -22 -22 -22 -22 -22 -22 -21 -21 -21 -22 -23 -24 -24 -25 -25 -24 -24 -23 -23 -23 -23 -22 -22 -23 -24 -26 -26 -26 -27 -27 -26 -26 -26 -26 -26 -26 -26 -26 -26 -26 -26 -26
-22 -22 -22 -22 -22 -22 -22 -22 -22 -23 -24 -24 -25 -25 -25 -25 -24 -24 -23 -23 -23 -23 -23 -23 -23 -23 -25 -26 -26 -26 -26 -26 -26 -26 -26 -26 -26 -26 -26 -26 -26 -26 -26 -26
-22 -22 -22 -22 -22 -22 -22 -22 -23 -24 -25 -26 -26 -26 -25 -24 -24 -24 -23 -23 -23 -23 -23 -23 -23 -24 -25 -26 -27 -26 -26 -26 -26 -26 -27 -27 -26 -26 -26 -26 -26 -26 -26 -25
-22 -22 -22 -22 -22 -22 -22 -23 -24 -25 -25 -26 -26 -25 -25 -24 -24 -24 -23 -23 -23 -23 -23 -23 -24 -24 -26 -27 -27 -27 -27 -27 -27 -27 -27 -27 -26 -26 -26 -26 -26 -26 -25 -26
-22 -22 -22 -22 -22 -23 -24 -24 -25 -25 -26 -26 -25 -25 -25 -24 -24 -24 -24 -24 -24 -24 -24 -24 -24 -25 -26 -27 -27 -27 -27 -27 -27 -26 -26 -26 -26 -26 -26 -26 -26 -26 -26 -25
-22 -22 -22 -23 -24 -24 -25 -26 -25 -26 -26 -25 -25 -25 -24 -24 -24 -24 -24 -24 -24 -24 -24 -24 -25 -26 -27 -27 -27 -27 -27 -27 -27 -26 -26 -26 -26 -26 -26 -26 -25 -25 -25 -25
-22 -23 -24 -24 -25 -26 -25 -26 -26 -26 -25 -25 -25 -25 -25 -25 -25 -24 -24 -24 -24 -24 -25 -25 -25 -26 -27 -27 -27 -27 -27 -27 -26 -26 -26 -26 -26 -26 -25 -25 -25 -25 -25 -25
-23 -24 -25 -25 -25 -25 -26 -26 -26 -26 -25 -25 -25 -25 -25 -25 -25 -25 -25 -25 -25 -25 -25 -25 -25 -25 -27 -28 -27 -27 -27 -27 -26 -26 -26 -26 -26 -26 -26 -25 -25 -25 -25 -25
-25 -25 -25 -25 -25 -26 -26 -26 -26 -25 -25 -25 -25 -25 -25 -25 -25 -25 -25 -25 -25 -25 -25 -25 -25 -26 -26 -27 -28 -27 -27 -27 -26 -26 -26 -26 -26 -26 -26 -26 -26 -26 -25 -25
-25 -25 -26 -26 -26 -26 -26 -26 -26 -26 -25 -25 -25 -25 -25 -25 -25 -25 -25 -25 -25 -25 -25 -25 -26 -26 -27 -28 -28 -28 -27 -27 -27 -26 -26 -26 -26 -26 -26 -26 -26 -25 -25 -25
-25 -26 -27 -26 -26 -26 -26 -26 -26 -26 -26 -26 -25 -25 -25 -25 -25 -25 -25 -26 -26 -26 -26 -26 -27 -27 -28 -28 -28 -28 -27 -27 -27 -27 -27 -26 -26 -26 -26 -26 -26 -26 -26 -26
-26 -26 -27 -27 -26 -26 -26 -26 -26 -26 -26 -26 -26 -26 -26 -26 -26 -26 -26 -26 -26 -26 -26 -27 -27 -28 -28 -28 -28 -28 -28 -28 -28 -27 -27 -27 -26 -26 -26 -26 -26 -26 -26 -26
-27 -26 -27 -27 -26 -27 -27 -27 -26 -26 -26 -26 -26 -26 -26 -26 -26 -26 -26 -26 -26 -27 -27 -27 -27 -28 -28 -28 -28 -28 -28 -28 -28 -28 -28 -27 -27 -26 -26 -26 -26 -26 -26 -26
-27 -27 -27 -27 -27 -27 -27 -27 -27 -27 -27 -27 -27 -27 -26 -26 -26 -26 -26 -26 -27 -27 -27 -27 -28 -28 -28 -28 -28 -28 -28 -28 -28 -28 -28 -28 -27 -27 -26 -26 -26 -26 -26 -26
-28 -27 -27 -27 -27 -28 -27 -27 -27 -27 -27 -27 -27 -27 -27 -27 -27 -27 -27 -27 -27 -27 -27 -28 -28 -28 -28 -28 -28 -28 -28 -28 -28 -28 -28 -28 -28 -27 -27 -27 -26 -26 -26 -26
-28 -28 -27 -27 -28 -27 -27 -27 -27 -27 -27 -27 -27 -27 -27 -27 -27 -27 -27 -27 -27 -27 -28 -28 -28 -28 -28 -29 -29 -29 -29 -29 -28 -28 -28 -28 -28 -28 -27 -27 -27 -27 -26 -26
-28 -28 -28 -28 -28 -28 -28 -28 -28 -28 -28 -28 -27 -27 -27 -27 -27 -27 -27 -27 -28 -28 -28 -29 -29 -29 -29 -29 -29 -29 -29 -29 -29 -29 -29 -29 -28 -28 -28 -28 -27 -27 -27 -27
-28 -28 -28 -28 -28 -28 -28 -28 -28 -28 -28 -28 -27 -28 -27 -28 -27 -27 -27 -28 -28 -29 -29 -29 -29 -30 -30 -29 -30 -30 -30 -29 -29 -29 -29 -29 -29 -28 -28 -28 -28 -27 -27 -27
-29 -29 -29 -29 -29 -28 -28 -28 -28 -28 -28 -28 -28 -28 -28 -28 -28 -28 -28 -28 -29 -29 -29 -29 -29 -30 -30 -30 -30 -30 -30 -29 -29 -29 -29 -29 -29 -28 -28 -28 -28 -27 -27 -27

GFSNW_500_temp_141.txt.gz
Temp
-21 -21 -21 -21 -21 -21 -21 -21 -21 -21 -20 -20 -19 -18 -18 -18 -18 -18 -18 -18 -18 -19 -19 -19 -18 -18 -18 -18 -19 -19 -19 -20 -20 -20 -20 -20 -21 -21 -22 -23 -24 -26 -27 -24
-21 -21 -20 -21 -21 -21 -21 -21 -22 -21 -21 -21 -20 -20 -19 -19 -19 -19 -19 -19 -19 -19 -19 -19 -19 -19 -19 -20 -20 -20 -20 -20 -21 -20 -21 -21 -23 -23 -25 -26 -26 -26 -27 -26
-21 -21 -21 -21 -22 -21 -22 -22 -21 -22 -21 -21 -20 -20 -20 -19 -20 -19 -19 -19 -19 -20 -19 -19 -19 -20 -20 -21 -21 -21 -21 -21 -21 -21 -21 -23 -25 -26 -26 -26 -27 -27 -26 -26
-21 -21 -21 -22 -22 -22 -20 -21 -22 -22 -21 -21 -21 -21 -21 -20 -20 -20 -20 -20 -20 -19 -19 -20 -20 -21 -22 -21 -22 -21 -21 -21 -21 -22 -23 -25 -26 -26 -26 -27 -27 -27 -27 -26
-21 -21 -22 -22 -22 -22 -22 -21 -22 -22 -22 -22 -21 -21 -20 -21 -20 -21 -20 -20 -20 -20 -20 -21 -21 -22 -22 -22 -22 -22 -21 -22 -22 -23 -25 -26 -26 -26 -26 -27 -27 -27 -27 -27
-21 -22 -22 -22 -22 -22 -22 -22 -22 -23 -22 -22 -22 -21 -21 -21 -21 -20 -20 -20 -21 -22 -22 -22 -22 -22 -22 -22 -22 -22 -22 -22 -24 -25 -26 -26 -26 -26 -26 -26 -26 -26 -26 -26
-21 -21 -21 -22 -22 -22 -22 -22 -23 -23 -23 -22 -22 -22 -21 -21 -21 -21 -21 -21 -23 -23 -23 -23 -23 -23 -22 -22 -22 -22 -23 -24 -25 -26 -26 -26 -26 -26 -26 -26 -26 -26 -27 -26
-21 -21 -22 -22 -22 -22 -22 -23 -23 -23 -22 -22 -22 -22 -21 -21 -21 -21 -23 -24 -24 -23 -23 -23 -23 -22 -22 -22 -22 -23 -24 -25 -26 -26 -26 -26 -26 -26 -26 -26 -26 -26 -27 -26
-22 -21 -22 -22 -22 -22 -22 -23 -23 -22 -22 -22 -22 -22 -21 -21 -23 -23 -24 -24 -24 -24 -23 -23 -23 -22 -22 -22 -23 -24 -25 -26 -26 -26 -26 -26 -26 -26 -26 -26 -26 -26 -26 -26
-22 -22 -22 -22 -22 -23 -22 -22 -22 -23 -22 -22 -22 -22 -22 -22 -23 -24 -25 -25 -24 -23 -23 -23 -23 -23 -23 -23 -24 -25 -26 -26 -26 -26 -26 -26 -26 -26 -26 -26 -26 -26 -26 -26
-23 -22 -23 -22 -22 -22 -22 -22 -22 -22 -22 -22 -22 -22 -24 -25 -25 -25 -25 -24 -23 -23 -23 -23 -23 -23 -23 -24 -25 -25 -26 -26 -26 -26 -26 -26 -26 -26 -26 -26 -26 -26 -26 -26
-23 -22 -22 -23 -22 -22 -22 -22 -22 -22 -22 -23 -23 -25 -25 -25 -25 -25 -24 -24 -23 -23 -23 -23 -23 -23 -23 -24 -25 -26 -26 -26 -26 -26 -26 -26 -26 -26 -27 -27 -26 -26 -26 -26
-23 -23 -22 -22 -22 -22 -23 -22 -23 -23 -24 -24 -25 -25 -25 -25 -25 -24 -24 -24 -23 -23 -23 -23 -23 -23 -24 -24 -25 -26 -27 -27 -27 -27 -27 -27 -26 -27 -27 -26 -26 -26 -26 -26
-22 -22 -22 -22 -22 -22 -23 -23 -23 -24 -25 -25 -25 -26 -26 -25 -25 -24 -24 -24 -23 -23 -23 -24 -24 -23 -24 -24 -26 -26 -27 -27 -27 -27 -27 -27 -27 -26 -26 -26 -26 -26 -26 -26
-22 -22 -22 -22 -22 -23 -23 -24 -25 -25 -26 -26 -26 -25 -25 -25 -25 -24 -24 -24 -24 -24 -24 -24 -24 -24 -24 -24 -26 -27 -27 -27 -27 -27 -27 -27 -27 -26 -26 -26 -26 -26 -26 -26
-22 -22 -23 -23 -23 -24 -25 -25 -25 -26 -26 -26 -25 -25 -25 -25 -25 -24 -24 -24 -24 -24 -24 -24 -24 -24 -24 -24 -25 -26 -27 -27 -27 -27 -27 -27 -27 -26 -26 -26 -26 -26 -26 -26
-23 -23 -24 -25 -25 -26 -26 -26 -26 -25 -26 -25 -25 -25 -25 -25 -25 -25 -25 -25 -25 -24 -24 -24 -24 -24 -24 -25 -25 -26 -27 -27 -27 -27 -27 -27 -27 -26 -27 -26 -26 -26 -26 -26
-23 -24 -25 -25 -26 -26 -26 -26 -26 -26 -26 -25 -25 -25 -25 -25 -25 -25 -25 -25 -25 -25 -25 -25 -25 -25 -25 -25 -26 -27 -28 -28 -27 -27 -27 -27 -27 -26 -27 -27 -27 -26 -26 -26
-24 -25 -26 -26 -26 -26 -26 -26 -26 -26 -26 -25 -25 -25 -25 -25 -25 -25 -25 -25 -25 -25 -25 -25 -25 -25 -26 -26 -27 -28 -28 -28 -27 -27 -27 -27 -27 -27 -27 -27 -27 -27 -26 -26
-25 -25 -26 -26 -26 -26 -26 -26 -26 -26 -25 -26 -26 -25 -25 -25 -25 -25 -25 -25 -25 -26 -26 -26 -26 -26 -26 -27 -28 -28 -28 -28 -28 -28 -28 -28 -27 -27 -27 -27 -27 -27 -26 -26
-26 -26 -26 -26 -26 -26 -26 -26 -26 -26 -26 -26 -26 -25 -26 -26 -26 -26 -25 -26 -26 -26 -26 -26 -26 -26 -27 -27 -28 -28 -28 -28 -29 -28 -28 -28 -28 -28 -28 -27 -27 -27 -26 -26
-27 -27 -27 -26 -26 -26 -26 -26 -26 -26 -26 -26 -26 -26 -26 -26 -26 -26 -26 -26 -26 -26 -27 -27 -27 -27 -27 -28 -28 -28 -28 -28 -29 -29 -29 -28 -28 -28 -28 -28 -27 -27 -27 -26
-27 -27 -27 -27 -26 -26 -26 -26 -26 -26 -26 -26 -26 -26 -27 -26 -26 -26 -26 -26 -26 -27 -27 -27 -27 -27 -28 -28 -29 -29 -29 -28 -29 -29 -29 -29 -28 -28 -28 -28 -28 -27 -27 -27
-27 -27 -27 -26 -26 -26 -26 -26 -27 -27 -27 -27 -27 -27 -27 -27 -27 -27 -27 -27 -27 -27 -27 -27 -27 -28 -28 -29 -29 -29 -29 -29 -29 -29 -29 -29 -29 -29 -29 -28 -28 -28 -28 -27
-27 -27 -27 -26 -26 -26 -26 -27 -27 -27 -27 -27 -27 -27 -27 -27 -27 -27 -27 -27 -27 -27 -27 -28 -28 -29 -29 -29 -30 -30 -30 -30 -30 -29 -29 -29 -29 -29 -29 -29 -29 -29 -28 -28
-27 -27 -27 -27 -27 -27 -27 -27 -27 -28 -28 -28 -28 -28 -27 -27 -27 -27 -27 -27 -27 -28 -28 -28 -28 -29 -29 -30 -30 -30 -30 -30 -30 -30 -30 -29 -29 -29 -29 -29 -29 -28 -28 -28
-27 -27 -27 -28 -28 -28 -28 -28 -28 -28 -28 -28 -28 -28 -28 -27 -27 -27 -28 -28 -28 -28 -28 -28 -29 -30 -30 -30 -30 -30 -30 -30 -30 -29 -29 -29 -29 -29 -29 -29 -29 -28 -28 -28